Home   Weather   Neustrelitz   Past weeks

Flag for Germany Past Weather in Neustrelitz, Mecklenburg-Western Pomerania, Germany — Yesterday and Last 2 Weeks

Now
34 °F

Fog.


Feels Like: 30 °F
Forecast: 40 / 59 °F
Wind: 5 mph from East

Location: Laage

Current Time: Apr 30, 2017 at 3:47:46 am

Latest Report: Apr 30, 2017 at 2:20 am


Visibility: N/A

Pressure: 30.15 "Hg

Humidity: 93%

Dew Point: 32 °F

Location of NeustrelitzLocation

Past Weather in Neustrelitz — Graph

°F

Neustrelitz Temperature Yesterday

Maximum temperature yesterday: 50 °F (at 5:20 pm)
Minimum temperature yesterday: 37 °F (at 11:20 pm)
Average temperature yesterday: 43 °F

High & Low Weather Summary for the Past Weeks

 TemperatureHumidityPressure
High57 °F (Apr 21, 3:20 pm)100% (Apr 16, 6:13 am)30.60 "Hg (Apr 16, 6:13 am)
Low27 °F (Apr 20, 3:20 am)42% (Apr 19, 2:20 pm)29.56 "Hg (Apr 25, 7:00 am)
Average41 °F75%30.01 "Hg
* Reported Apr 15 2:20 am — Apr 30 2:20 am, Neustrelitz, Weather by CustomWeather, © 2017

Note: Actual official high and low records may vary slightly from our data, if they occured in-between our weather recording intervals... More about our weather records

Advertising

Neustrelitz Weather History for the Previous 24 Hours

Scroll right to see more
 ConditionsComfort  
Time TempWeatherWind HumidityBarometerVisibility
2:20 am
Sun, Apr 30
34 °FFog.5 mph93%30.15 "HgN/A
1:20 am34 °FChilly.3 mph93%30.15 "HgN/A
12:20 am36 °FChilly.5 mph93%30.15 "HgN/A
11:20 pm
Sat, Apr 29
37 °FChilly.3 mph87%30.12 "HgN/A
10:20 pm39 °FPassing clouds.6 mph81%30.12 "HgN/A
9:20 pm41 °FPassing clouds.9 mph76%30.09 "HgN/A
8:20 pm45 °FPassing clouds.9 mph66%30.09 "HgN/A
7:20 pm48 °FPassing clouds.8 mph58%30.07 "HgN/A
6:20 pm48 °FScattered clouds.9 mph54%30.07 "HgN/A
5:20 pm50 °FScattered clouds.9 mph50%30.04 "HgN/A
4:20 pm48 °FPartly sunny.9 mph58%30.04 "HgN/A
3:20 pm46 °FBroken clouds.8 mph66%30.04 "HgN/A
2:20 pm45 °FBroken clouds.9 mph66%30.01 "HgN/A
1:20 pm45 °FBroken clouds.6 mph66%30.01 "HgN/A
12:20 pm45 °FBroken clouds.12 mph71%30.01 "HgN/A
11:20 am46 °FBroken clouds.14 mph66%29.98 "HgN/A
10:20 am45 °FPartly sunny.13 mph66%29.98 "HgN/A
9:20 am45 °FScattered clouds.13 mph71%29.95 "HgN/A
8:20 am43 °FPassing clouds.10 mph81%29.95 "HgN/A
7:20 am39 °FPassing clouds.8 mph93%29.95 "HgN/A
6:20 am39 °FPassing clouds.8 mph93%29.95 "Hg6 mi
5:48 am39 °FScattered clouds.6 mph93%29.95 "Hg5 mi
5:20 am39 °FPassing clouds.7 mph93%29.92 "Hg4 mi
4:20 am41 °FPartly cloudy.7 mph93%29.92 "HgN/A
3:20 am43 °FLight rain. Passing clouds.8 mph93%29.92 "HgN/A
Weather by CustomWeather, © 2017

See weather overviewHow to use our weather pages